Simultaneous Nadir Overpasses (SNOs) Predictions

Prediction of SNOs between LANDSAT-8 and NOAA-19 Satellite Orbit:

Table of predicted SNOs for the next 14.0 days since TLE Epoch: 8/11/2017
Index Date (LANDSAT-8) Time (LANDSAT-8) Lat,Lon (LANDSAT-8) SZA (LANDSAT-8 ) Date (NOAA-19) Time (NOAA-19) Lat,Lon (NOAA-19) SZA (NOAA-19 ) Distance(km) Time Diff (sec)
1 08/13/2017 00:02:19 -76.49, 9.25 118.09 08/13/2017 00:01:09 -76.48, 9.25 118.11 1.60 70
2 08/13/2017 00:51:46 76.43, 176.69 61.86 08/13/2017 00:52:12 76.42, 176.73 61.85 1.83 26
3 08/15/2017 05:36:03 76.49, 105.80 62.60 08/15/2017 05:35:00 76.51, 105.74 62.61 2.64 63
4 08/15/2017 06:25:32 -76.41, -86.81 117.47 08/15/2017 06:25:56 -76.43, -86.71 117.44 3.41 24
5 08/17/2017 11:09:48 -76.52,-157.53 116.66 08/17/2017 11:08:44 -76.50,-157.61 116.68 2.78 64
6 08/17/2017 11:59:15 76.45, 9.88 63.28 08/17/2017 11:59:46 76.45, 9.85 63.29 0.90 31
7 08/19/2017 16:43:32 76.50, -61.01 64.06 08/19/2017 16:42:33 76.50, -60.99 64.05 0.76 59
8 08/19/2017 17:33:01 -76.43, 106.40 116.01 08/19/2017 17:33:31 -76.46, 106.42 115.97 3.10 30
9 08/21/2017 22:17:17 -76.53, 35.66 115.16 08/21/2017 22:16:19 -76.53, 35.50 115.18 4.09 58
10 08/21/2017 23:06:44 76.46,-156.95 64.77 08/21/2017 23:07:19 76.45,-156.91 64.77 1.86 35
11 08/24/2017 03:51:01 76.51, 132.14 65.57 08/24/2017 03:50:06 76.51, 132.23 65.57 2.31 55




NCC Satellite Simultaneous Nadir Overpasses (SNOs) Prediction Service
